Simultaneous Nadir Overpasses (SNOs) Predictions

Prediction of SNOs between GOES-17 and NOAA-21 Satellite Orbit:

Table of predicted SNOs for the next 14.0 days since TLE Epoch: 10/24/2025
Index Date Time (GOES-17) GOES-17 Lat,Lon NOAA-21 Lat,Lon Distance(km) Time Diff (sec)
1 10/25/2025 19:32:35 0.17, -89.51 -0.24, -91.48 224.07 80
2 10/26/2025 19:11:08 0.19, -89.51 0.76, -86.94 292.70 80
3 10/28/2025 07:35:33 -0.16, -89.49 0.44, -92.19 307.62 80
4 10/29/2025 07:14:06 -0.18, -89.48 -0.57, -87.65 208.81 80
5 10/30/2025 19:38:41 0.15, -89.50 -0.61, -92.94 392.03 80
6 10/31/2025 19:17:14 0.17, -89.50 0.40, -88.40 125.20 80
7 11/02/2025 07:41:38 -0.13, -89.50 0.78, -93.65 473.37 80
8 11/03/2025 07:20:12 -0.16, -89.50 -0.23, -89.11 43.58 80
9 11/05/2025 19:26:00 0.13, -89.52 0.08, -89.87 39.99 80
10 11/06/2025 19:04:33 0.15, -89.52 1.10, -85.33 477.46 80
